LBSFLBPD

Guest
Details From LBSF - Sofia
To LBPD - Plovdiv
Flight Number -
Tags generated
Created
Modified
Stats Distance 74 nm / 137 km
Max Altitude 9,500 ft / 2,896 m
Waypoints 4
Social Downloads 5
Likes 0
Share VATSIM

Download

Looking for another format? Having issues loading an existing format? Contact us
Advertisement - Login to hide

Notes

Basic altitude profile: - Ascent Rate: 2500ft/min - Ascent Speed: 250kts - Cruise Altitude: 35000ft - Cruise Speed: 420kts - Descent Rate: 1500ft/min - Descent Speed: 250kts Options: - Use NATs: yes - Use PACOTS: yes - Use low airways: yes - Use high airways: yes

Route

LBSF LARAT A4 RUMEN LBPD

ID Type Via Altitude Latitude Longitude Leg Dist Tot Dist Heading (true) Name
O LBSF APT - 0 ft / 0 m 42.69713˚ 23.41672˚ - 0 nm - Sofia
LARAT FIX - 8,300 ft / 2,530 m 42.50167˚ 23.87111˚ 23 nm 23 nm 120° / 120° -
RUMEN FIX A4 (AWY-LO) 9,500 ft / 2,896 m 42.30500˚ 24.31333˚ 22 nm 46 nm 121° / 121° -
O LBPD APT - 0 ft / 0 m 42.06786˚ 24.85081˚ 27 nm 73 nm 121° / 121° Plovdiv

Altitude Profile

Advertisement - Login to hide

LBSF

Details ICAO LBSF (SOF)
Name Sofia
Region Bulgaria
Timezone Europe/Sofia (UTC+3.0)
Stats Elevation 1,741 ft / 531 m (AMSL)
Location 42.697130° 23.416722°
Runways 1
Magnetic Variation 4.979° E

METAR

LBSF 210530Z 11009KT 9999 FEW030 BKN043 17/13 Q1019 NOSIG

Decode

TAF

TAF LBSF 210500Z 2106/2206 10012KT 9999 SCT040 BKN060 TEMPO 2106/2110 5000 SHRA FEW015 SCT033CB BKN050 TEMPO 2110/2118 VRB18KT 4000 TSRA SCT030CB BKN040

Decode

Departure Runways

ID Width Length Bearing (true) Bearing (mag) Surface Threshold Offset Overrun Length
09 148 ft / 45 m 11,801 ft / 3,597 m 93.99° 89.01° Asphalt 984 ft / 300 m 525 ft / 160 m
27 148 ft / 45 m 11,801 ft / 3,597 m 274.02° 269.04° Asphalt 0 ft / 0 m 525 ft / 160 m

LBPD

Details ICAO LBPD (PDV)
Name Plovdiv
Region Bulgaria
Timezone Europe/Sofia (UTC+3.0)
Stats Elevation 597 ft / 182 m (AMSL)
Location 42.067856° 24.850814°
Runways 1
Magnetic Variation 5.111° E

METAR

LBPD 210530Z AUTO 13003KT 080V170 9999 OVC100/// 18/16 Q1018 NOSIG

Decode

TAF

TAF LBPD 210500Z 2106/2206 10010KT 9999 SCT050 BKN070 TEMPO 21072110 5000 SHRA FEW030CB BKN060 TEMPO 2110/2120 VRB18KT 4000 TSRA SCT030CB BKN050 BECMG 2122/2124 VRB04KT TEMPO 2201/2205 4000 BR BKN015

Decode

Destination Runways

ID Width Length Bearing (true) Bearing (mag) Surface Threshold Offset Overrun Length
12 164 ft / 50 m 8,200 ft / 2,500 m 127.33° 122.22° Asphalt 0 ft / 0 m 197 ft / 60 m
30 164 ft / 50 m 8,200 ft / 2,500 m 307.35° 302.24° Asphalt 0 ft / 0 m 295 ft / 90 m

Approach Navaids

Runway Type Ident Frequency Range Bearing (true) Bearing (mag) Slope Elevation
30 Localiser IPD 109.90 MHz 18 nm / 33 km 307.33° 302.22° - 597 ft / 182 m (AMSL)
30 Glidescope IPD 109.90 MHz 10 nm / 19 km 307.34° 302.23° 3.00° 597 ft / 182 m (AMSL)

Popular Alternatives